Weaverville, CA

2:03 AM PDT on October 21, 2017 (GMT -0700)
Weaverville

Weather History for KO54 - October, 2011

Change the Weather History Date:

Thursday, October 6, 2011

  Actual Average (KRDD) Record (KRDD)
Temperature  
Mean Temperature 48 °F -  
Max Temperature 57 °F 82 °F 103 °F (1987)
Min Temperature 39 °F 51 °F 43 °F (2013)
Degree Days  
Heating Degree Days 17    
Moisture  
Dew Point 39 °F    
Average Humidity 79    
Maximum Humidity 100    
Minimum Humidity 51    
Precipitation  
Precipitation 0.33 in - - ()
Sea Level Pressure  
Sea Level Pressure 29.94 in    
Wind  
Wind Speed 1 mph (SSW)    
Max Wind Speed 10 mph    
Max Gust Speed -    
Visibility 9 miles    
Events      
Averages and records for this station are not official NWS values.
T = Trace of Precipitation, MM = Missing Value Source: NWS Daily Summary

Daily Weather History Graph

Daily Weather History Graph

Search for Another Location

Airport or City:

Trip Planner

Search our weather history database for the weather conditions in past years. The results will help you decide how hot, cold, wet, or windy it might be!

Date:

Astronomy

Oct. 06, 2011 Rise Set
Actual Time 7:13 AM PDT 6:45 PM PDT
Civil Twilight 6:45 AM PDT 7:13 PM PDT
Nautical Twilight 6:14 AM PDT 7:44 PM PDT
Astronomical Twilight 5:42 AM PDT 8:16 PM PDT
Moon 4:03 PM PDT (10/6) 2:05 AM PDT (10/6)
Length of Visible Light 12h 27m
Length of Day
11h 32m
Waxing Gibbous, 76% of the Moon is Illuminated
Oct 6
Waxing Gibbous
Oct 11
Full
Oct 19
Last Quarter
Oct 26
New
Nov 2
First Quarter

Hourly Weather History & Observations

Time (PDT) Temp. Windchill Dew Point Humidity Pressure Visibility Wind Dir Wind Speed Gust Speed Precip Events Conditions
12:15 AM 42.8 °F - 39.2 °F 87% 29.81 in 10.0 mi Calm Calm - N/A   Overcast
12:35 AM 41.0 °F - 39.2 °F 93% 29.81 in 10.0 mi Calm Calm - N/A   Overcast
12:55 AM 41.0 °F - 39.2 °F 93% 29.81 in 10.0 mi Calm Calm - N/A   Overcast
1:15 AM 41.0 °F - 39.2 °F 93% 29.81 in 10.0 mi Calm Calm - N/A   Mostly Cloudy
1:35 AM 41.0 °F - 39.2 °F 93% 29.81 in 8.0 mi Calm Calm - N/A   Mostly Cloudy
1:55 AM 41.0 °F - 41.0 °F 100% 29.81 in 6.0 mi Calm Calm - N/A   Overcast
2:35 AM 41.0 °F - 39.2 °F 93% 29.81 in 5.0 mi Calm Calm - 0.03 in   Overcast
2:55 AM 41.0 °F - 39.2 °F 93% 29.81 in 7.0 mi Calm Calm - 0.04 in   Mostly Cloudy
3:15 AM 41.0 °F 39.0 °F 39.2 °F 93% 29.81 in 7.0 mi NE 3.5 mph - 0.01 in   Mostly Cloudy
3:35 AM 41.0 °F - 39.2 °F 93% 29.81 in 6.0 mi Calm Calm - 0.02 in   Scattered Clouds
3:55 AM 39.2 °F 35.9 °F 39.2 °F 100% 29.82 in 6.0 mi NE 4.6 mph - 0.06 in   Partly Cloudy
4:15 AM 41.0 °F 39.0 °F 39.2 °F 93% 29.83 in 5.0 mi North 3.5 mph - 0.01 in   Partly Cloudy
4:35 AM 39.2 °F - 37.4 °F 93% 29.83 in 5.0 mi Calm Calm - 0.04 in   Mostly Cloudy
4:55 AM 39.2 °F - 37.4 °F 93% 29.84 in 5.0 mi Calm Calm - 0.09 in   Partly Cloudy
5:15 AM 39.2 °F - 37.4 °F 93% 29.85 in 5.0 mi Calm Calm - 0.04 in   Partly Cloudy
5:35 AM 39.2 °F - 37.4 °F 93% 29.85 in 5.0 mi Calm Calm - 0.09 in   Mostly Cloudy
5:55 AM 39.2 °F - 37.4 °F 93% 29.86 in 6.0 mi Calm Calm - 0.11 in   Overcast
6:15 AM 39.2 °F - 37.4 °F 93% 29.87 in 10.0 mi Calm Calm - 0.01 in   Mostly Cloudy
6:35 AM 39.2 °F - 35.6 °F 87% 29.88 in 9.0 mi Calm Calm - 0.01 in   Mostly Cloudy
6:55 AM 39.2 °F - 37.4 °F 93% 29.89 in 9.0 mi Calm Calm - 0.02 in   Overcast
7:15 AM 39.2 °F - 37.4 °F 93% 29.90 in 10.0 mi Calm Calm - N/A   Overcast
7:55 AM 39.2 °F 37.0 °F 37.4 °F 93% 29.91 in 10.0 mi South 3.5 mph - N/A   Overcast
8:15 AM 39.2 °F - 37.4 °F 93% 29.92 in 10.0 mi Calm Calm - N/A   Overcast
9:15 AM 39.2 °F - 37.4 °F 93% 29.96 in 10.0 mi Calm Calm - N/A   Overcast
9:35 AM 41.0 °F - 37.4 °F 87% 29.97 in 10.0 mi Calm Calm - N/A   Overcast
9:55 AM 41.0 °F 39.0 °F 39.2 °F 93% 29.97 in 10.0 mi South 3.5 mph - 0.01 in   Overcast
10:15 AM 42.8 °F 40.1 °F 39.2 °F 87% 29.98 in 10.0 mi South 4.6 mph - N/A   Overcast
10:35 AM 42.8 °F 41.1 °F 39.2 °F 87% 29.98 in 10.0 mi SSW 3.5 mph - N/A   Overcast
10:55 AM 44.6 °F 43.1 °F 39.2 °F 81% 29.99 in 10.0 mi SSW 3.5 mph - N/A   Overcast
11:15 AM 46.4 °F - 39.2 °F 76% 29.99 in 10.0 mi Calm Calm - N/A   Overcast
11:35 AM 46.4 °F - 39.2 °F 76% 29.99 in 10.0 mi Calm Calm - N/A   Overcast
11:55 AM 46.4 °F - 39.2 °F 76% 29.99 in 10.0 mi Calm Calm - N/A   Mostly Cloudy
12:15 PM 48.2 °F - 39.2 °F 71% 30.00 in 10.0 mi SW 3.5 mph - N/A   Mostly Cloudy
12:35 PM 50.0 °F - 39.2 °F 66% 30.01 in 10.0 mi SW 6.9 mph - N/A   Overcast
12:55 PM 50.0 °F - 39.2 °F 66% 30.01 in 10.0 mi WSW 5.8 mph - N/A   Mostly Cloudy
1:15 PM 50.0 °F - 37.4 °F 62% 30.00 in 10.0 mi NW 5.8 mph - N/A   Mostly Cloudy
1:35 PM 51.8 °F - 39.2 °F 62% 30.01 in 10.0 mi WSW 6.9 mph - N/A   Partly Cloudy
1:55 PM 51.8 °F - 37.4 °F 58% 30.01 in 10.0 mi WSW 8.1 mph - N/A   Clear
2:15 PM 51.8 °F - 39.2 °F 62% 30.01 in 10.0 mi SW 10.4 mph - N/A   Clear
2:35 PM 53.6 °F - 39.2 °F 58% 30.02 in 10.0 mi Calm Calm - N/A   Clear
2:55 PM 53.6 °F - 39.2 °F 58% 30.02 in 10.0 mi South 5.8 mph - N/A   Clear
3:15 PM 55.4 °F - 39.2 °F 54% 30.02 in 10.0 mi SW 4.6 mph - N/A   Clear
3:35 PM 55.4 °F - 37.4 °F 51% 30.02 in 10.0 mi South 3.5 mph - N/A   Clear
3:55 PM 55.4 °F - 37.4 °F 51% 30.02 in 10.0 mi SSW 4.6 mph - N/A   Clear
4:15 PM 55.4 °F - 39.2 °F 54% 30.02 in 10.0 mi SSW 3.5 mph - N/A   Clear
4:35 PM 55.4 °F - 39.2 °F 54% 30.02 in 10.0 mi SSE 3.5 mph - N/A   Scattered Clouds
4:55 PM 57.2 °F - 39.2 °F 51% 30.03 in 10.0 mi SSW 5.8 mph - N/A   Mostly Cloudy
5:15 PM 55.4 °F - 39.2 °F 54% 30.03 in 10.0 mi SSW 4.6 mph - N/A   Scattered Clouds
5:35 PM 55.4 °F - 39.2 °F 54% 30.02 in 10.0 mi Calm Calm - N/A   Clear
5:55 PM 55.4 °F - 39.2 °F 54% 30.03 in 10.0 mi Calm Calm - N/A   Clear
6:15 PM 53.6 °F - 42.8 °F 67% 30.03 in 10.0 mi NE 3.5 mph - N/A   Clear
6:35 PM 50.0 °F - 42.8 °F 76% 30.03 in 10.0 mi North 4.6 mph - N/A   Clear
6:55 PM 48.2 °F - 41.0 °F 76% 30.04 in 10.0 mi NE 3.5 mph - N/A   Clear
7:15 PM 46.4 °F - 41.0 °F 81% 30.05 in 10.0 mi Calm Calm - N/A   Clear
7:35 PM 46.4 °F - 41.0 °F 81% 30.06 in 10.0 mi Calm Calm - N/A   Clear
7:55 PM 44.6 °F - 41.0 °F 87% 30.07 in 10.0 mi Calm Calm - N/A   Clear
8:15 PM 44.6 °F - 41.0 °F 87% 30.08 in 10.0 mi Calm Calm - N/A   Clear
8:35 PM 44.6 °F 43.1 °F 41.0 °F 87% 30.08 in 10.0 mi North 3.5 mph - N/A   Clear
8:55 PM 42.8 °F - 39.2 °F 87% 30.09 in 10.0 mi Calm Calm - N/A   Clear
9:15 PM 41.0 °F - 39.2 °F 93% 30.10 in 10.0 mi Calm Calm - N/A   Clear
9:35 PM 41.0 °F - 39.2 °F 93% 30.10 in 10.0 mi Calm Calm - N/A   Clear
9:55 PM 41.0 °F - 39.2 °F 93% 30.11 in 10.0 mi Calm Calm - N/A   Clear
10:15 PM 39.2 °F - 39.2 °F 100% 30.11 in 10.0 mi Calm Calm - N/A   Clear
10:35 PM 39.2 °F - 37.4 °F 93% 30.12 in 10.0 mi Calm Calm - N/A   Clear
10:55 PM 39.2 °F - 37.4 °F 93% 30.12 in 10.0 mi Calm Calm - N/A   Clear
11:15 PM 39.2 °F - 37.4 °F 93% 30.12 in 8.0 mi Calm Calm - N/A   Clear
11:35 PM 39.2 °F - 37.4 °F 93% 30.13 in 10.0 mi Calm Calm - N/A   Mostly Cloudy
11:55 PM 39.2 °F - 37.4 °F 93% 30.13 in 9.0 mi Calm Calm - N/A   Mostly Cloudy